カタログに戻る

ONEWEB-0054

運用中通信PO
NORAD 45158·PAYLOAD·🇬🇧 United Kingdom

打ち上げ Feb 6, 2020 から Baikonur Cosmodrome

Loading…

次のパス (今後24時間)

TLE

最新Source: CelesTrak SupGP

元期: Sep 14, 2026, 23:29 UTC

1 45158C 20008AD  26257.97898563 -.00001530  00000+0 -43898-2 0  2571
2 45158  87.8895  18.3920 0001706 104.2958   5.6074 13.10369911    13

AllMySatでONEWEB-0054をリアルタイム追跡

Download on the App Store